STARLINK-3814 (52335 NORAD) Tracking and Keplerian Element Data

This shows tracking and keplerian element data for the satellite.

Feedback or suggestion? Click here.




ElementValue
Catalog52335
NameSTARLINK-3814
Epoch Orbit130
Epoch Day167.08334491
Epoch Year2022
RAAN207.3524
Inclination53.2174
Eccentricity0.00017
Argument of Perigee39.9847
Mean Anonmoly58.7904
Mean Motion15.31950266
Decay Rate-0.00716571
L11 52335U 22045E 22167.08334491 -.00716571 00000+0 -24820-1 0 9996
L22 52335 53.2174 207.3524 0001700 39.9847 58.7904 15.31950266 1308

Live tracking and technical data element details for STARLINK-3814 (NORAD 52335). STARLINK-3814 can be tracked NOW for your location showing map with azimuth and elevation plus other details from your city location.

Track the satellite on the map from your city or location and see movement details for azimuth, elevation, latitude, longitude, range, height, and movement on the map or in text.







IsCatalogInMostPopularTable: catalog: 52335, numindb: 1
Update: records affected: 1



GetName: 52335 STARLINK-3814

Hit Count: updated at: Sat, 25 Jun 2022 05:29:37 GMT